This is the latest recevied weather packets stored in our database for station/object N3FWE. If no packets are shown the sender has not sent any weather packets the latest 10 day(s).
| Time | Temp. | Humidity | Pressure | Rain* | Wind** | Luminosity | Snow |
|---|---|---|---|---|---|---|---|
| 1777818013 | 11.11° C | 40% | 1016.7 hPa | 0 mm | - | - | - |
| 1777817413 | 11.11° C | 42% | 1016.7 hPa | 0 mm | - | - | - |
| 1777816814 | 10° C | 42% | 1016.6 hPa | 0 mm | - | - | - |
| 1777816214 | 10° C | 42% | 1016.7 hPa | 0 mm | - | - | - |
| 1777815613 | 9.44° C | 46% | 1016.7 hPa | 0 mm | - | - | - |
| 1777815013 | 9.44° C | 46% | 1016.8 hPa | 0 mm | - | - | - |
| 1777814412 | 8.89° C | 47% | 1016.9 hPa | 0 mm | - | - | - |
| 1777813813 | 8.89° C | 46% | 1016.8 hPa | 0 mm | - | - | - |
| 1777813213 | 8.33° C | 51% | 1016.7 hPa | 0 mm | - | - | - |
| 1777812612 | 8.33° C | 52% | 1016.9 hPa | 0 mm | - | - | - |
| 1777812013 | 7.78° C | 54% | 1016.8 hPa | 0 mm | - | - | - |
| 1777811414 | 7.78° C | 57% | 1016.8 hPa | 0 mm | - | - | - |
| 1777810813 | 7.22° C | 59% | 1016.8 hPa | 0 mm | - | - | - |
| 1777810214 | 6.67° C | 60% | 1016.7 hPa | 0 mm | - | - | - |
| 1777809614 | 6.11° C | 60% | 1016.8 hPa | 0 mm | - | - | - |
| 1777809013 | 6.11° C | 62% | 1016.6 hPa | 0 mm | - | - | - |
| 1777808413 | 5.56° C | 63% | 1016.6 hPa | 0 mm | - | - | - |
| 1777807812 | 5.56° C | 62% | 1016.5 hPa | 0 mm | - | - | - |
| 1777807212 | 5° C | 62% | 1016.4 hPa | 0 mm | - | - | - |
| 1777806612 | 5° C | 64% | 1016.2 hPa | 0 mm | - | - | - |
| 1777806013 | 5° C | 63% | 1016.1 hPa | 0 mm | - | - | - |
| 1777805412 | 5° C | 63% | 1016 hPa | 0 mm | - | - | - |
| 1777804813 | 5° C | 62% | 1015.9 hPa | 0 mm | - | - | - |
| 1777804212 | 5° C | 62% | 1015.7 hPa | 0 mm | - | - | - |
| 1777803612 | 5° C | 62% | 1015.6 hPa | 0 mm | - | - | - |
* Rain latest hour (hover to see other rain measurements)
** Current wind speed in m/s (hover to see current wind gust speed)